Location: Unspecified
(40.7945°N, 111.1337°W)
Time: 18:24:23
(UTC-06:00)

Vanguard 1 - Pass Details

Date: 03 July 2019
Orbit: 653 x 3830 km, 34.3° (Epoch: 20 July)

Event Time Altitude Azimuth Distance (km) Brightness Sun altitude
Rises 02:56:45 0° 257° (WSW) 7,944 14.4 -23.0°
Reaches altitude 10° 03:02:14 10° 256° (WSW) 6,929 14.0 -22.6°
Maximum altitude 03:24:58 70° 179° (S) 3,228 12.4 -20.8°
Drops below altitude 10° 03:39:12 10° 99° (E) 4,628 13.8 -19.4°
Sets 03:42:03 0° 97° (E) 5,298 14.2 -19.1°
